Wind_Speed
5 5 4 3 4 5 5 6 7 8 8 7 8 8 8 8 8 7 7 8 8 8 5 5 5 5 3 2 4 7 11 22 31 36 30 22 30 28 21 16 11 11 7 3 6 6 11 14 13 13 15 12 6 4 5 5 5 5 4 6 4 3 2 5 6 5 3 3 4 3 0 4 1 3 1 1 3 4 4 4 4 4 5 7 9 11 11 12
6 6 5 5 5 6 6 6 7 7 7 8 10 9 9 9 8 8 6 7 8 8 5 6 6 6 4 3 5 6 6 13 28 32 28 30 32 26 18 14 9 9 6 4 6 6 9 5 7 13 10 5 5 5 4 4 6 5 4 5 2 3 2 3 6 5 2 3 3 1 0 2 2 2 2 1 4 6 4 6 5 5 8 7 9 10 9 10
7 7 6 6 6 6 5 6 7 6 8 10 11 10 10 10 10 9 7 7 7 9 7 4 5 6 6 6 7 6 6 11 22 22 29 34 30 24 19 13 8 10 9 10 9 10 12 8 8 11 7 5 4 4 5 5 4 3 4 5 1 5 2 1 4 4 4 3 4 1 0 1 1 1 1 1 3 4 2 5 3 3 7 7 8 8 8 11
8 8 7 7 6 5 5 6 7 7 9 10 10 10 9 11 12 11 8 8 8 9 7 3 3 4 6 6 5 4 5 8 10 17 30 33 30 23 18 13 7 9 11 15 15 15 17 16 15 10 6 6 4 4 6 5 2 4 4 4 3 3 3 0 3 2 3 3 5 2 1 0 1 0 1 3 1 5 5 6 6 6 7 7 9 10 11 12
9 8 7 7 6 5 6 6 7 6 8 9 10 9 9 11 13 11 8 8 10 12 12 13 11 9 6 6 6 5 4 6 6 21 30 30 29 21 15 14 6 5 6 9 9 10 12 12 11 8 6 5 6 5 6 6 3 5 2 1 2 3 4 1 2 1 2 3 4 2 1 1 1 0 2 5 3 5 5 5 8 9 8 7 7 11 12 13
10 9 8 7 6 6 6 6 5 4 6 8 9 10 10 12 13 13 10 6 8 11 14 17 18 20 18 12 5 4 6 3 10 24 27 27 28 19 12 13 6 3 2 3 4 7 8 8 9 7 5 5 7 7 3 6 4 6 2 3 2 2 3 0 2 1 2 5 4 1 1 1 2 2 1 4 7 8 6 5 7 8 8 7 8 9 10 11
9 8 8 7 7 7 6 5 4 4 5 7 8 10 10 10 12 15 13 8 3 3 6 7 9 12 14 18 23 19 11 2 15 24 24 26 24 16 10 10 8 4 4 7 10 8 6 10 11 5 5 6 6 6 3 6 8 8 3 2 3 2 3 1 1 1 3 4 1 2 0 1 1 2 1 3 9 9 8 6 5 8 8 8 8 9 9 11
9 7 7 7 7 7 6 5 5 5 5 7 7 8 9 8 9 14 16 15 9 4 3 4 5 6 5 7 16 15 6 5 19 22 22 23 22 16 6 4 8 11 14 14 9 7 5 9 8 4 6 5 3 4 3 7 10 7 4 1 1 2 2 1 2 5 4 1 2 0 1 3 3 1 1 7 10 8 8 6 5 6 7 7 6 9 10 11
8 7 6 6 7 7 6 6 6 6 6 7 6 6 8 7 7 10 13 16 16 15 10 7 7 7 2 2 7 8 4 10 18 20 21 21 20 17 10 5 6 11 17 15 8 7 4 3 2 5 7 5 4 3 3 5 5 2 3 2 2 1 4 2 3 5 4 2 2 1 4 5 3 1 3 9 9 6 5 5 4 5 7 7 5 9 9 9
8 7 6 6 7 8 7 7 6 7 6 6 6 6 7 7 7 7 9 11 13 17 18 17 12 3 6 6 8 7 5 11 15 17 18 20 21 20 21 18 14 19 21 21 19 13 8 9 8 10 11 5 5 4 4 5 4 4 5 5 5 1 3 3 3 5 4 2 2 0 4 5 1 1 3 7 6 4 5 6 6 5 6 8 6 9 8 9
8 8 7 6 7 7 7 7 6 6 5 5 5 5 6 7 8 8 10 8 3 6 9 13 14 16 21 16 9 6 5 11 15 17 15 19 26 26 26 23 21 25 25 23 22 17 16 16 12 9 6 3 4 6 6 4 6 5 6 5 6 4 4 5 3 5 4 1 1 1 4 4 2 1 6 6 5 2 2 6 7 5 7 7 7 8 8 9
9 8 7 5 6 6 7 7 7 6 5 4 4 5 7 7 8 9 13 11 3 3 5 5 6 14 25 20 7 3 6 12 14 14 14 17 26 28 28 27 24 23 24 21 15 12 11 7 11 9 3 4 5 5 3 3 5 4 4 5 5 6 6 6 2 3 3 1 1 0 3 5 1 5 9 6 4 2 0 6 7 6 7 7 6 6 7 10
9 8 6 5 5 7 9 9 8 8 6 5 4 4 6 7 7 7 10 12 11 12 11 9 3 6 14 10 3 6 7 14 14 10 13 15 18 23 26 29 29 28 29 28 18 17 14 13 23 15 4 7 4 2 5 3 4 2 3 5 2 6 5 5 4 4 2 0 3 1 2 5 6 9 9 5 3 1 2 7 7 6 6 6 6 5 6 10
9 9 6 4 6 9 11 10 11 12 10 7 4 5 6 8 9 8 8 9 12 14 14 15 11 11 12 3 1 10 9 12 14 12 16 15 12 16 21 23 27 27 29 29 23 23 22 24 29 14 3 6 4 3 5 5 3 2 2 2 2 2 1 5 4 4 1 0 4 3 1 5 7 9 7 5 2 3 4 8 6 6 6 6 6 5 6 9
10 9 6 5 8 11 12 13 14 17 17 11 5 4 5 7 9 10 9 7 7 8 6 9 10 11 10 2 1 9 11 13 18 19 19 15 12 10 13 17 20 20 21 22 19 18 20 22 20 8 2 5 5 6 4 3 4 3 1 2 3 2 1 6 2 4 2 3 4 5 1 6 6 9 6 4 2 4 5 8 7 7 7 6 6 6 5 8
10 10 8 7 10 10 11 12 13 16 18 18 14 7 3 3 5 8 10 8 8 8 5 6 8 9 7 1 3 8 11 13 17 19 14 14 15 9 8 11 14 14 15 15 13 13 18 19 10 4 4 5 6 6 3 4 4 3 2 1 2 2 1 4 1 3 1 4 4 2 2 4 3 6 6 4 3 3 6 8 8 7 7 6 5 5 5 7
11 10 7 7 8 8 8 9 10 11 12 16 19 16 12 8 1 1 3 2 6 9 9 9 7 9 6 3 3 5 8 11 15 17 13 11 13 11 7 5 7 8 8 12 12 9 13 11 3 2 5 4 3 3 2 4 3 4 3 3 1 0 0 3 2 2 4 2 3 2 2 7 6 6 8 6 2 4 7 9 9 7 7 6 5 5 6 6
9 8 4 5 5 5 5 5 5 5 6 6 10 13 17 18 12 9 7 1 1 5 7 12 9 7 4 5 3 6 9 11 14 17 14 8 8 12 11 6 5 6 4 7 11 8 7 5 3 3 4 5 5 5 2 1 1 1 1 2 1 3 2 4 3 2 6 5 3 3 3 10 11 10 10 7 1 4 8 8 7 7 7 6 6 6 6 6
8 7 3 3 4 4 2 1 1 1 1 1 2 3 5 9 14 22 27 18 6 4 3 7 6 5 1 4 5 9 9 9 12 16 17 10 4 8 12 10 6 5 4 4 6 6 3 4 6 4 4 5 4 3 2 2 4 5 3 4 1 3 3 5 5 2 4 4 5 3 4 8 11 12 10 7 2 3 8 6 6 7 6 7 6 6 6 6
8 8 5 1 2 4 6 6 4 4 4 4 4 5 3 2 5 10 19 18 7 3 4 1 1 4 1 3 8 11 6 3 7 16 21 13 3 4 9 10 7 7 6 1 3 4 3 6 5 1 2 5 4 2 2 3 4 5 4 3 2 2 4 5 4 4 3 3 5 2 4 9 11 12 10 7 4 3 7 6 7 7 6 7 6 7 7 6
7 6 7 7 5 3 4 4 4 5 6 6 5 3 1 2 4 1 2 7 3 3 6 1 2 5 1 2 8 10 3 1 5 16 24 14 4 4 6 7 7 6 4 1 2 4 5 7 2 3 4 3 2 2 4 4 4 4 3 2 0 2 5 5 2 4 5 2 4 3 6 11 11 9 8 5 4 4 6 6 7 7 7 6 6 8 7 6
7 4 5 8 8 9 10 9 4 2 4 3 1 5 4 4 7 7 4 4 3 6 6 4 4 4 2 2 8 9 4 4 8 15 23 17 6 4 3 6 7 3 4 3 2 4 7 4 2 4 3 3 4 3 5 5 4 3 1 1 1 2 4 5 2 4 5 1 3 6 7 11 11 8 8 5 4 5 5 5 6 6 7 7 6 7 7 6
9 5 3 3 5 7 10 12 9 6 4 5 9 11 9 10 11 6 4 5 2 5 5 5 5 4 5 4 8 9 6 6 4 11 21 16 6 4 3 6 7 3 5 6 3 4 4 1 2 1 4 4 5 5 5 4 3 3 3 3 2 3 3 3 3 6 5 1 3 5 5 7 8 6 6 5 4 5 5 5 6 5 7 8 7 6 6 7
10 6 4 4 3 4 7 8 7 9 11 13 15 14 11 10 8 3 3 4 2 2 2 2 2 2 3 4 8 7 4 3 0 7 18 11 3 2 4 4 5 5 5 5 8 9 4 1 1 3 2 3 4 5 5 3 2 3 2 4 1 4 2 3 4 7 5 1 2 4 3 5 5 4 6 5 3 5 5 5 7 5 6 6 6 6 6 7
11 7 5 5 4 2 3 5 6 9 11 12 13 12 10 6 2 2 4 4 3 2 2 0 1 2 1 4 9 3 2 3 1 4 11 8 2 1 3 2 4 4 2 1 9 9 3 1 2 3 4 4 5 4 3 3 2 3 1 3 2 2 3 4 5 6 4 3 3 4 4 4 5 3 7 5 6 7 5 6 7 8 5 4 5 7 6 6
12 9 6 5 3 2 1 2 5 8 7 7 9 8 6 4 2 2 3 5 3 3 4 1 1 4 3 5 8 2 3 3 2 3 7 7 2 2 3 2 3 3 5 2 5 4 2 2 2 4 4 5 5 3 1 3 4 2 1 4 4 2 1 3 5 3 3 1 3 4 3 3 6 5 6 4 6 8 7 6 7 7 6 4 4 5 5 6
13 11 8 5 3 2 2 2 5 5 2 3 7 7 4 4 3 3 4 5 3 2 3 2 0 4 4 4 5 2 2 4 2 3 7 8 4 3 5 3 2 2 2 2 4 2 1 3 6 6 5 5 5 3 0 3 4 1 1 5 4 2 1 1 3 2 1 2 3 5 4 1 4 5 5 4 6 8 8 7 7 5 5 6 5 6 5 6
13 13 10 7 4 3 1 4 5 2 2 6 7 6 4 2 1 2 5 4 2 0 1 3 2 3 3 4 6 5 0 3 2 3 7 10 6 3 5 2 3 2 0 4 3 0 1 2 3 4 5 4 2 1 1 4 2 2 3 4 1 2 2 2 3 1 2 1 3 6 5 1 5 6 5 5 4 7 8 7 7 6 5 6 6 7 6 6
14 14 10 7 4 4 4 4 4 4 7 9 7 4 3 0 2 4 5 2 2 1 0 2 2 3 5 5 6 5 3 3 3 5 8 9 8 6 6 2 5 5 1 4 5 2 0 0 2 3 4 2 1 2 2 4 0 1 4 3 2 3 2 2 3 1 2 3 2 6 5 2 4 6 4 3 2 6 7 6 6 6 6 6 6 7 7 6
15 14 12 7 3 3 4 4 6 8 9 8 6 3 2 1 4 6 2 1 0 1 1 2 2 3 6 5 4 6 5 4 3 5 6 4 7 8 5 2 5 6 4 6 5 1 1 1 2 3 2 1 2 0 1 3 1 2 4 3 3 3 2 2 2 2 4 3 4 5 3 2 3 5 3 2 3 5 4 4 6 6 6 6 6 6 6 6
15 16 14 9 3 2 2 5 8 9 8 7 5 2 2 3 5 6 1 2 0 1 2 4 3 4 7 4 3 5 5 5 6 6 5 4 7 8 4 2 2 4 5 6 5 2 2 2 1 0 1 1 3 2 0 1 1 3 2 1 2 2 2 2 4 4 4 3 5 4 2 1 2 5 5 5 6 6 5 4 6 6 7 6 6 6 6 5
14 16 15 11 8 5 4 7 8 7 6 5 3 3 4 2 1 2 2 3 1 1 1 1 2 4 5 3 3 5 4 4 5 5 3 3 5 5 4 2 0 3 4 3 3 3 1 1 2 1 1 1 3 2 2 3 2 3 3 3 3 3 4 3 4 3 0 3 2 2 1 1 5 8 6 6 7 7 7 7 7 6 7 7 6 6 6 6
11 14 14 11 9 8 9 8 7 6 4 4 2 5 7 4 2 3 2 2 1 2 1 1 2 2 2 3 4 4 2 2 4 4 1 1 4 3 2 0 1 1 1 0 2 3 2 2 3 2 2 1 4 2 2 2 2 3 2 3 4 3 4 2 4 2 3 4 1 2 2 2 4 6 7 9 8 7 7 7 8 7 8 8 7 6 7 8
8 12 13 10 9 8 8 7 5 4 2 3 4 5 5 1 3 2 2 3 1 2 1 1 3 3 3 3 2 3 1 1 3 3 2 3 4 3 3 3 3 2 2 2 2 2 2 2 2 2 2 3 3 1 1 0 2 2 2 3 4 4 3 1 3 2 3 5 3 2 2 2 2 3 6 8 7 5 6 7 6 7 8 7 7 7 7 8
4 8 12 11 9 7 6 5 3 2 1 2 6 5 3 3 3 2 3 4 2 1 1 1 3 5 4 3 2 1 1 1 2 4 4 4 2 1 2 4 4 3 2 2 0 1 2 2 2 2 2 2 2 1 2 3 1 1 1 3 3 2 4 2 2 4 2 3 4 2 3 5 4 5 5 3 6 6 5 5 5 7 6 4 6 7 7 7
1 4 9 11 9 7 5 3 1 1 0 5 6 2 3 4 2 3 3 1 3 3 2 2 4 5 1 3 3 3 1 1 2 4 3 3 2 1 1 2 2 2 2 2 1 0 2 1 2 3 2 2 1 1 1 1 1 1 2 3 1 3 5 4 1 0 3 1 4 2 3 6 4 3 5 6 6 8 6 6 6 7 6 4 6 8 7 7
1 1 5 9 9 6 4 3 2 1 2 6 5 2 3 2 1 2 2 1 2 3 5 2 1 2 1 1 3 4 2 1 2 3 1 1 1 2 0 1 1 1 1 2 2 1 1 2 2 1 1 1 1 1 1 1 1 2 3 2 2 3 4 4 1 3 5 1 4 3 3 6 3 1 5 7 6 8 7 6 7 8 7 6 8 8 7 8
1 1 3 8 10 6 5 4 1 2 4 6 3 2 1 1 1 1 1 0 0 3 5 3 1 1 2 2 1 4 3 2 2 3 1 1 1 3 2 0 0 1 1 1 1 0 1 1 3 0 2 2 2 2 2 3 1 2 3 2 2 2 1 2 2 1 3 2 5 5 4 4 3 3 4 3 4 7 7 6 6 8 8 7 8 8 8 8
1 1 1 7 11 8 6 3 2 4 6 4 2 2 1 1 1 1 1 1 0 2 2 3 1 2 2 3 1 2 2 1 1 3 1 0 1 1 1 0 0 0 2 1 2 1 1 1 3 2 2 2 2 2 1 2 2 2 3 3 2 3 2 1 2 1 0 1 3 5 5 4 5 6 5 6 8 7 7 6 6 8 8 7 7 7 7 7
2 1 1 6 12 7 4 4 4 6 5 2 3 2 0 1 2 1 1 0 0 1 1 4 3 2 3 3 2 1 1 1 2 2 0 0 1 0 1 0 1 1 2 2 3 0 2 2 2 4 2 1 1 0 2 2 0 1 2 2 1 2 1 1 1 2 2 2 1 2 5 6 6 5 7 9 8 7 8 7 7 8 8 8 7 7 6 6
2 2 2 7 13 3 3 7 6 4 4 2 1 1 0 1 1 1 2 1 0 1 1 4 4 3 4 2 1 2 1 2 1 1 1 1 1 0 1 0 1 1 2 3 3 1 1 1 1 3 3 2 2 1 1 2 1 1 0 1 2 2 3 2 2 2 2 2 3 2 3 9 7 4 7 8 6 6 7 6 6 8 8 8 8 8 7 7
4 2 2 8 12 0 4 7 2 2 4 2 1 1 0 2 2 1 2 1 1 0 1 3 3 2 3 2 1 2 2 2 1 1 1 2 1 1 1 1 1 0 1 1 1 1 1 3 1 3 3 2 3 2 1 1 2 3 0 1 2 3 3 4 1 3 1 2 1 3 1 9 6 3 5 6 5 5 5 5 7 8 8 9 9 9 8 8
2 1 2 9 10 2 6 5 1 3 3 1 1 1 1 1 1 0 1 2 1 0 2 2 1 1 1 1 2 2 1 2 3 2 2 2 1 1 1 1 1 0 2 1 1 1 1 4 2 4 4 3 3 2 2 2 2 2 1 1 2 1 1 4 3 2 3 3 2 3 2 8 6 2 4 5 5 6 6 6 8 8 8 9 9 10 9 9
1 3 2 9 8 3 3 0 2 2 1 2 2 1 1 0 1 1 0 1 0 1 2 1 0 1 1 1 3 2 1 1 2 1 1 3 1 1 2 2 1 0 1 1 1 0 0 1 2 3 5 6 5 5 4 3 0 2 2 1 2 2 5 3 2 3 0 4 6 4 4 8 6 3 3 4 5 6 8 7 7 8 8 8 8 9 9 9
1 1 2 7 9 6 3 2 5 5 2 1 3 1 1 1 1 0 1 1 0 1 2 1 0 2 3 2 4 2 2 1 1 1 1 2 1 1 2 4 2 1 2 2 1 0 1 1 2 3 2 2 3 3 3 2 1 2 1 2 3 4 6 3 1 3 2 4 5 5 6 8 7 6 6 7 6 8 10 8 6 7 8 9 9 9 8 8
2 1 3 6 8 8 3 1 4 6 4 4 3 1 1 2 1 1 2 1 0 1 2 1 1 3 3 2 3 3 2 2 1 1 1 1 1 1 2 3 1 1 3 1 2 3 2 1 2 4 5 5 5 5 3 1 1 3 3 4 5 4 5 4 4 3 5 3 3 8 10 12 16 13 11 10 8 8 10 9 8 7 8 8 9 8 9 8
2 1 1 2 4 4 4 4 4 4 3 4 3 2 3 2 1 1 1 0 0 1 2 1 2 2 2 3 3 1 1 2 2 0 2 2 1 1 2 1 1 1 2 1 1 3 3 2 2 4 6 6 5 5 2 1 4 6 5 5 7 6 5 6 6 6 5 4 5 9 7 9 17 14 12 15 13 10 11 11 10 9 8 9 8 8 9 10
1 1 1 1 1 1 3 3 3 5 3 2 2 2 3 3 2 2 1 1 1 0 1 1 2 4 6 5 4 2 1 2 2 1 2 1 1 0 2 0 1 3 2 1 2 3 5 2 3 3 5 8 7 7 4 3 5 6 6 7 7 8 9 12 12 8 8 6 11 7 3 9 16 15 15 18 15 12 13 14 12 10 10 10 10 10 11 11
2 2 0 1 1 2 0 1 2 5 5 3 2 2 4 5 5 4 1 2 2 2 1 2 5 6 6 5 4 4 3 2 2 3 3 2 2 2 1 1 1 3 2 2 2 1 3 2 2 2 4 8 7 6 3 4 5 6 9 11 10 11 14 15 13 9 9 13 17 13 12 17 19 18 18 19 15 12 12 12 12 12 10 10 10 11 11 11
1 1 1 2 3 1 0 2 3 4 3 2 1 1 3 6 7 4 2 5 2 1 2 4 6 4 4 4 5 4 7 6 2 2 5 5 1 3 3 3 3 2 2 1 1 1 1 2 1 3 3 7 5 5 2 4 5 8 13 13 12 12 12 13 12 8 8 13 17 14 14 17 20 17 15 15 13 10 10 12 13 12 9 8 10 11 11 12
2 2 2 4 3 1 1 1 2 4 1 1 2 3 3 6 8 5 2 3 5 5 7 7 5 3 3 3 5 6 8 7 3 2 6 6 2 2 2 2 6 5 2 2 1 0 1 1 1 4 3 6 4 5 7 6 6 10 16 13 12 11 8 8 9 8 10 12 11 7 7 13 15 9 6 10 10 8 10 13 12 10 8 7 9 12 12 12
2 1 2 4 2 2 1 1 2 2 2 3 2 3 2 4 6 6 3 1 2 3 5 7 7 5 4 4 8 8 6 6 3 1 4 4 4 4 3 3 6 6 5 4 2 1 3 3 1 2 1 6 5 4 6 8 7 8 11 7 8 10 7 5 6 9 12 11 6 5 9 11 8 4 4 9 10 9 11 10 8 9 10 8 10 11 12 13
Wind_Direction
93 83 76 69 63 64 69 59 38 19 16 25 41 48 36 32 24 18 16 12 355 333 306 252 246 253 260 288 347 5 15 32 40 39 37 7 352 356 349 346 1 10 8 100 124 100 70 57 50 57 65 55 21 340 23 34 34 51 73 74 97 145 135 158 175 193 156 152 214 272 183 130 242 296 318 308 2 355 335 319 309 313 276 244 258 279 293 297
79 73 69 68 67 69 67 46 27 19 31 45 50 43 28 20 5 358 355 4 1 343 318 265 258 236 240 267 295 334 340 14 30 30 16 1 360 0 359 6 18 23 25 118 127 106 87 57 37 52 54 39 358 360 21 16 35 69 98 79 114 185 148 158 176 195 179 143 179 275 277 159 194 259 6 295 304 353 351 308 333 338 304 288 271 274 290 298
71 69 67 66 65 64 54 32 28 40 55 58 50 39 30 22 8 6 7 14 9 360 356 296 265 243 258 274 279 310 307 11 31 12 356 0 3 1 5 14 37 54 67 96 100 94 98 107 78 65 60 49 14 10 31 15 25 69 92 79 163 205 165 174 180 200 237 160 127 106 200 238 234 246 339 229 283 331 273 263 315 308 282 289 285 283 302 309
67 64 62 59 58 51 38 33 46 64 61 52 41 34 31 25 22 24 31 36 25 17 21 2 331 299 285 287 285 298 315 32 32 343 350 360 0 1 3 10 45 74 76 86 88 91 93 87 74 69 77 54 353 15 36 2 14 55 67 102 164 171 103 23 221 224 256 131 124 138 109 15 269 207 119 156 277 303 256 233 225 234 244 256 279 295 310 311
62 58 56 52 49 39 36 48 60 64 49 38 29 28 31 31 31 32 37 53 50 49 63 72 63 44 13 318 264 263 359 51 344 339 354 359 359 0 1 9 48 107 87 91 83 82 80 68 62 55 65 48 355 26 22 340 52 71 35 106 149 144 106 268 283 268 210 97 90 82 91 199 290 311 146 153 204 253 240 224 212 219 230 238 274 296 307 307
55 52 52 49 45 43 45 59 59 44 34 29 27 30 38 38 37 34 31 46 66 64 70 78 74 66 55 50 101 107 72 87 324 343 355 359 1 0 4 13 37 100 107 124 73 66 59 47 58 48 60 58 28 50 8 331 56 92 51 3 8 153 118 264 315 287 180 95 90 147 235 309 14 306 181 170 218 230 229 222 211 230 246 258 282 286 292 297
48 46 49 46 46 46 46 57 53 43 30 19 22 29 37 43 43 41 38 34 51 72 59 62 59 59 54 60 75 74 82 75 334 346 357 3 6 1 9 30 52 104 122 91 75 79 67 59 77 82 77 77 52 69 48 13 55 80 92 11 10 82 75 313 303 55 111 103 196 227 266 336 324 286 20 245 244 245 252 257 249 260 272 277 280 273 276 285
40 41 43 43 45 46 47 59 58 52 34 15 19 27 32 48 54 46 47 49 53 54 6 333 329 324 325 46 69 63 65 345 340 352 2 8 17 16 8 55 79 100 90 71 75 109 91 68 95 134 76 71 93 88 54 45 50 64 108 171 39 51 5 294 91 51 52 75 262 224 352 268 224 214 342 262 256 255 264 279 284 292 301 290 275 276 283 288
34 36 36 40 45 45 52 66 64 56 40 22 24 31 35 51 67 49 47 53 59 63 47 20 347 321 301 113 83 66 10 339 346 357 6 13 29 41 55 74 89 91 74 56 64 99 97 80 119 139 113 109 98 63 8 59 62 83 117 145 95 19 323 357 74 24 360 313 320 7 309 291 221 214 277 256 253 267 290 300 315 344 321 300 289 285 289 287
27 26 27 36 40 41 54 67 62 50 39 32 31 36 43 48 55 47 45 48 60 71 61 46 34 43 115 100 81 79 333 344 3 4 10 23 40 56 59 63 84 88 74 58 57 65 92 126 123 110 110 104 79 28 4 83 122 124 113 111 87 40 327 36 69 352 325 268 351 293 272 287 290 330 274 264 273 297 309 299 318 350 309 293 293 290 290 277
22 20 20 28 36 39 58 68 57 43 32 31 30 35 44 44 48 49 37 25 47 78 52 43 58 83 83 74 80 87 343 355 13 13 19 34 47 54 53 58 76 83 81 65 57 70 95 111 115 109 95 82 92 51 35 93 121 120 116 90 31 5 16 34 59 356 333 216 60 149 260 288 350 320 231 251 305 348 274 283 307 320 291 289 290 290 285 272
18 14 13 26 39 55 79 79 61 48 36 34 42 53 56 51 55 55 36 24 32 46 357 10 73 85 69 62 68 52 7 12 16 26 34 41 49 54 56 60 66 71 82 74 54 70 94 103 88 83 82 117 110 72 90 103 98 119 100 82 356 360 31 8 355 332 329 207 266 15 324 311 261 240 238 252 313 32 194 280 293 291 285 291 289 291 281 275
17 10 12 34 64 96 99 87 70 58 52 56 76 81 69 57 54 61 46 46 67 69 55 49 107 123 68 59 36 27 28 23 25 42 45 46 55 59 60 65 68 68 77 79 68 69 82 96 92 90 86 102 106 117 125 68 74 128 56 87 14 7 17 342 337 315 304 125 320 2 330 294 255 250 256 282 312 57 288 275 278 282 286 292 289 290 284 281
19 13 21 61 104 116 103 86 75 62 55 60 92 97 80 65 58 66 60 58 71 70 63 58 80 102 77 96 359 29 34 30 35 37 31 39 59 64 65 67 70 70 74 78 76 76 83 88 88 92 68 83 108 90 67 19 38 95 54 71 44 54 323 318 343 356 23 71 11 66 218 266 266 271 277 306 293 174 251 268 272 281 283 287 287 283 282 281
26 26 40 87 118 114 95 82 75 66 60 57 76 104 82 64 59 65 63 66 67 52 51 52 67 88 76 92 2 21 30 31 28 20 15 26 40 49 58 64 67 66 69 71 71 73 78 77 73 76 48 31 58 69 42 5 25 46 95 311 354 101 298 309 307 49 45 285 8 78 227 269 266 269 272 332 10 175 233 267 273 278 278 282 285 280 280 284
31 40 60 104 124 110 91 83 77 70 63 59 63 70 68 65 75 75 62 66 56 32 43 43 48 88 91 43 350 12 24 18 10 11 11 23 31 33 43 64 68 63 64 61 61 59 59 66 62 62 66 24 42 69 51 37 12 352 84 146 329 60 15 306 259 50 5 278 336 51 243 278 274 263 266 326 2 208 237 265 270 272 275 280 283 286 286 288
30 44 71 119 132 117 98 89 84 76 68 66 67 66 65 59 71 232 336 19 45 34 59 39 33 93 79 354 3 358 352 351 357 9 16 21 30 36 46 71 51 40 53 45 43 33 33 51 59 44 60 42 45 73 53 20 326 320 28 109 231 317 235 297 292 345 358 347 322 357 231 253 266 276 283 301 314 225 240 254 262 268 275 282 288 290 286 282
28 36 74 143 158 144 118 105 101 88 77 72 66 67 70 63 62 60 33 75 320 8 44 16 20 95 39 351 355 317 315 336 357 11 15 19 34 41 47 57 18 2 17 27 31 25 17 34 56 65 42 22 32 51 100 225 203 185 5 86 3 314 237 265 268 326 8 8 318 336 260 264 277 285 289 293 252 213 242 252 261 271 279 284 292 289 282 283
28 26 44 184 201 199 204 217 233 288 338 356 8 22 58 54 58 55 46 55 61 29 49 345 10 113 342 319 316 316 314 337 7 15 12 12 29 44 42 40 34 36 43 19 15 17 25 37 42 58 14 353 1 28 104 144 131 149 162 120 138 306 268 254 260 289 10 351 295 253 251 277 287 289 291 298 317 223 253 273 271 273 279 279 288 282 278 281
26 26 38 109 222 249 276 285 287 273 277 283 302 334 341 14 36 33 31 46 67 74 103 287 12 101 35 319 329 338 333 333 20 18 13 11 12 33 24 19 31 48 51 27 349 360 61 65 50 80 298 304 278 257 108 95 102 119 113 108 171 259 284 271 279 301 351 339 281 238 276 284 282 282 283 298 329 279 262 274 270 269 273 272 278 277 275 270
26 34 56 75 75 38 349 315 275 246 262 284 292 345 168 147 68 172 351 45 60 43 71 91 80 85 55 326 346 353 357 329 8 12 13 12 15 27 3 13 47 42 22 304 313 347 59 75 52 246 232 262 277 197 129 92 77 84 115 134 225 231 262 273 273 313 1 4 274 353 330 290 280 281 285 306 317 268 247 247 263 270 274 274 272 271 272 275
23 31 56 67 62 54 53 55 44 269 265 284 85 89 119 138 117 141 143 91 31 14 46 50 49 48 348 349 356 0 43 27 356 0 6 6 21 49 7 38 72 68 347 1 9 21 52 73 292 274 199 122 53 85 104 92 89 67 97 129 327 273 281 294 303 336 360 352 274 350 339 291 283 283 285 289 257 255 251 235 253 269 278 280 268 269 279 290
17 12 9 20 31 44 52 55 50 52 86 112 104 100 106 114 122 130 96 98 55 1 20 30 46 19 353 19 1 6 57 49 355 342 354 3 30 62 68 61 71 74 11 25 97 94 66 355 286 220 159 120 50 43 77 87 82 54 55 77 315 315 351 311 315 339 333 263 295 325 317 287 295 306 294 279 249 275 288 265 260 249 253 268 271 272 275 282
12 360 331 312 332 29 49 54 60 74 92 104 102 107 119 118 120 109 72 90 65 4 14 25 100 65 20 16 359 12 74 64 66 330 350 14 69 34 74 94 74 65 24 43 92 98 94 244 178 101 90 115 86 42 64 95 28 358 74 101 316 308 319 259 296 331 325 28 351 333 340 302 315 339 293 298 330 309 319 325 301 270 249 269 288 282 261 256
10 359 336 316 305 321 42 54 77 96 100 101 104 113 119 121 127 74 74 69 20 326 351 341 148 58 55 10 1 8 117 45 114 311 348 23 70 25 76 107 80 84 260 31 80 85 80 247 179 101 43 71 102 53 50 116 45 342 228 141 167 257 265 287 324 346 9 43 360 16 23 304 309 305 264 302 346 313 328 344 306 293 298 301 294 286 277 269
9 3 349 335 319 293 311 55 102 114 105 99 117 126 116 123 122 57 72 65 28 314 353 31 122 18 352 356 356 6 92 14 296 337 8 19 8 125 85 360 56 116 212 178 80 88 55 14 74 102 77 57 69 66 67 128 85 20 233 147 128 130 164 333 350 12 47 348 314 39 70 278 312 304 265 315 335 303 315 318 289 289 303 303 285 282 288 286
9 6 0 352 344 308 285 184 148 134 106 136 143 135 117 113 92 41 54 51 15 299 357 331 323 13 348 339 354 87 91 315 305 29 25 15 348 112 79 4 44 83 185 114 64 53 31 16 29 54 76 59 47 39 318 121 98 5 178 125 115 111 122 23 34 46 337 276 312 25 80 206 295 283 275 328 327 306 309 300 291 290 285 290 288 282 280 273
11 8 5 360 1 360 19 146 153 136 130 155 152 144 137 107 2 18 73 74 329 351 28 312 330 5 337 350 27 78 153 315 50 358 360 27 17 61 78 65 124 119 196 110 109 240 23 19 17 43 61 58 48 303 200 134 86 268 176 133 138 130 140 142 97 68 309 351 328 342 23 80 273 279 311 354 336 306 295 274 276 279 277 286 291 290 285 277
15 12 10 4 10 42 76 118 130 122 136 145 143 150 171 358 7 54 77 122 295 22 190 320 357 332 341 2 16 35 8 10 64 314 340 34 29 46 86 119 126 120 49 91 131 174 92 225 196 106 69 42 237 272 179 153 311 225 144 104 64 78 89 103 98 117 28 35 286 306 355 32 280 285 317 6 314 274 272 266 265 264 273 279 280 287 287 289
15 15 16 11 17 62 71 88 107 125 133 138 141 145 156 32 54 66 58 223 328 320 245 15 1 332 11 28 357 9 28 9 341 333 353 26 11 34 88 152 110 98 38 47 80 118 289 259 202 112 76 181 173 94 191 187 220 122 111 69 66 51 39 61 40 94 64 1 254 266 331 36 304 287 256 219 220 222 238 277 279 274 281 276 266 274 279 291
15 17 17 21 41 50 60 92 112 130 132 133 142 116 71 36 63 93 201 250 125 301 6 31 357 6 32 53 2 359 19 349 337 9 23 5 2 18 44 42 62 61 25 26 36 349 344 23 341 297 31 99 103 82 29 359 39 99 105 83 99 345 5 31 352 37 69 300 254 244 290 108 242 265 246 239 240 217 202 228 253 263 272 271 270 275 279 289
18 18 18 27 44 56 93 116 121 125 131 141 144 68 74 46 17 146 273 324 15 313 41 25 330 26 32 41 25 345 339 352 5 46 48 22 34 24 24 43 168 27 16 353 357 356 10 15 329 303 283 91 86 52 358 353 24 76 67 51 64 356 11 19 336 10 183 259 229 208 277 182 229 244 241 251 254 231 212 211 220 237 254 264 274 284 291 294
22 22 22 32 47 70 96 113 122 117 131 151 102 52 76 84 233 210 280 337 15 319 68 64 340 44 47 26 15 334 335 358 2 44 81 96 71 35 349 45 143 71 48 192 13 15 1 316 348 6 302 45 86 73 360 323 353 44 56 59 76 68 40 351 297 323 287 278 250 228 281 284 271 261 225 228 239 227 221 227 224 228 243 257 271 282 292 291
24 29 30 41 55 76 94 106 120 116 133 133 75 56 77 145 226 187 258 253 257 341 34 56 360 35 54 44 338 309 58 37 342 31 24 35 57 22 338 342 19 71 106 85 63 69 73 311 355 28 322 16 54 73 102 127 357 4 187 118 99 126 118 243 255 245 281 294 301 297 278 209 245 278 218 220 250 258 246 246 241 240 240 247 270 278 276 279
23 34 33 43 52 65 87 104 113 103 181 94 63 66 122 226 231 167 222 236 217 335 345 35 53 53 20 356 332 325 114 281 7 47 28 39 84 43 354 322 347 46 97 71 7 87 89 241 280 328 311 37 34 287 107 97 43 268 181 81 70 146 134 119 186 185 205 313 303 283 237 218 226 271 274 284 297 291 280 276 270 262 251 249 276 274 266 270
12 36 32 37 38 44 63 77 43 343 153 84 65 78 193 219 208 167 192 166 142 151 117 59 62 71 352 318 346 7 41 281 12 44 28 45 148 202 353 269 318 38 92 105 153 17 48 259 294 342 342 54 64 253 62 61 308 359 47 70 120 140 117 107 149 208 75 36 286 293 281 292 315 306 322 350 319 301 302 297 283 271 279 295 278 267 265 265
6 55 35 28 24 31 37 23 8 355 84 82 84 202 221 214 181 185 202 104 147 126 101 106 57 76 195 266 321 324 340 300 354 45 35 18 147 179 153 260 250 96 143 125 152 196 110 262 302 38 162 302 323 99 34 306 217 67 77 145 165 100 92 99 79 356 37 37 284 329 298 298 342 330 329 350 322 299 290 284 290 287 287 284 267 264 265 262
35 123 56 22 14 16 18 13 35 93 74 73 85 217 210 162 203 199 199 297 133 88 86 134 159 50 191 167 284 297 331 327 360 47 96 308 114 156 151 285 116 92 300 41 87 9 73 301 308 127 171 306 1 73 346 319 359 101 123 137 115 104 55 32 62 20 14 328 294 314 299 270 212 227 293 304 253 268 277 284 292 275 264 257 258 266 271 274
109 116 54 15 11 9 12 15 143 74 64 82 151 205 177 210 262 248 201 317 127 109 101 178 166 62 170 165 193 271 343 13 71 58 100 128 60 150 138 224 200 334 308 24 110 230 50 50 290 252 196 311 10 66 291 308 351 43 47 16 37 121 142 39 64 132 207 294 293 320 327 280 228 215 209 217 224 233 250 268 265 254 254 250 247 255 267 275
138 50 242 360 9 10 37 64 75 55 63 135 183 185 69 261 257 297 308 327 168 155 154 174 160 112 183 211 228 205 34 78 133 93 95 150 82 66 30 57 181 278 318 26 80 57 31 69 265 293 320 297 322 45 187 186 183 21 26 3 10 70 108 177 39 80 125 141 181 327 318 277 250 206 191 214 226 214 218 233 246 255 260 257 252 253 262 268
113 35 250 353 5 356 102 57 45 52 90 124 133 152 97 162 177 337 320 316 83 222 176 151 146 140 166 188 227 192 91 65 108 94 201 197 110 84 359 45 184 259 332 30 55 51 39 99 228 302 325 274 244 267 195 154 153 141 157 214 156 104 109 113 338 332 91 120 164 149 289 277 263 200 201 220 226 223 223 225 249 268 267 266 268 260 257 261
89 44 237 354 359 267 108 56 31 67 99 114 71 195 334 69 103 23 324 348 62 220 67 104 118 121 144 144 162 169 122 95 127 91 181 205 152 174 322 14 222 217 94 78 322 256 132 89 77 272 267 246 264 298 78 106 129 126 145 268 123 109 107 113 241 266 113 95 139 111 269 271 263 204 216 241 248 250 241 224 248 272 273 272 276 273 270 266
91 212 221 358 355 144 97 45 330 31 41 248 293 313 354 54 114 83 338 357 29 29 38 60 73 68 138 160 120 145 159 174 168 136 190 211 181 222 307 336 258 357 77 148 247 257 96 70 29 296 293 317 325 346 43 54 87 116 250 203 130 118 99 133 170 172 140 169 149 89 269 267 276 268 231 246 262 270 261 234 239 261 273 271 272 278 279 274
142 224 230 359 357 158 132 52 185 64 327 276 25 24 316 17 109 81 356 308 358 126 105 100 52 68 113 94 92 130 209 177 157 97 158 176 168 345 351 336 277 131 62 198 181 191 267 69 60 9 350 345 347 353 348 347 20 216 239 178 162 121 99 120 134 76 291 211 156 137 247 254 270 314 294 275 290 287 269 241 224 238 261 270 271 274 274 274
51 247 259 356 27 81 123 179 148 136 188 147 89 111 20 54 62 80 166 151 338 168 123 114 168 89 94 80 71 71 28 49 134 3 69 139 292 337 356 337 323 171 233 271 316 201 212 177 123 103 74 299 288 289 288 296 283 248 192 171 196 150 131 157 117 84 255 234 153 168 239 263 276 297 297 286 289 287 279 269 245 237 249 262 268 272 274 275
65 28 304 337 23 56 67 73 100 118 160 150 127 170 127 102 325 330 112 104 341 138 80 62 160 90 85 92 71 49 360 3 52 75 155 178 244 282 320 343 15 171 216 248 34 76 106 207 198 163 182 209 220 232 222 138 216 248 222 195 195 183 153 128 107 163 198 178 197 223 239 276 286 289 293 290 280 272 277 281 274 262 256 258 262 267 272 273
74 87 14 334 350 34 48 26 51 90 162 160 139 164 153 147 306 3 87 306 196 121 47 45 139 146 157 150 118 114 278 340 9 101 188 184 191 262 302 10 56 316 283 236 31 83 92 298 246 187 226 244 245 253 234 159 238 240 235 216 194 187 167 154 186 208 154 119 262 241 207 251 276 284 293 294 292 289 289 289 286 284 281 277 276 278 278 278
45 131 131 138 287 6 32 13 64 81 76 89 94 124 144 149 176 179 184 359 26 174 138 32 255 212 189 172 155 155 165 344 320 227 172 162 176 187 347 334 263 319 345 11 337 94 122 242 235 179 263 274 269 271 250 217 248 247 238 234 206 185 187 201 218 201 152 196 252 252 198 250 271 282 284 283 287 292 292 292 293 293 288 286 289 288 284 283
70 100 20 11 125 172 224 339 98 90 69 70 83 130 161 175 198 209 163 84 359 304 181 218 259 230 196 182 140 138 186 199 263 246 183 153 171 155 137 203 235 334 14 65 345 82 146 228 218 154 287 282 278 292 267 222 257 267 247 235 216 202 202 214 229 209 192 235 256 266 278 277 274 274 274 277 283 287 288 290 291 288 284 285 286 283 279 278
118 147 245 49 65 112 52 18 80 84 50 49 110 178 169 176 195 214 172 144 158 256 187 211 241 206 170 175 148 178 212 176 119 242 176 144 174 204 196 193 160 51 28 94 345 331 221 256 175 108 315 287 293 339 323 227 238 260 260 241 215 214 217 222 236 225 212 246 260 267 279 278 271 267 267 273 281 288 287 285 284 282 280 279 280 279 277 275
111 139 134 105 76 351 355 17 71 94 57 286 187 191 192 199 199 187 188 179 159 171 187 191 187 126 90 165 198 235 227 173 126 229 176 150 156 196 198 171 146 136 139 164 158 51 153 239 53 62 348 283 298 352 322 291 267 265 272 258 210 201 211 216 223 209 199 224 251 273 270 260 265 279 279 267 270 274 273 275 282 288 282 267 269 277 279 276
80 64 86 104 87 329 67 49 47 107 220 244 186 177 204 235 215 177 173 241 117 150 190 176 153 112 90 195 224 237 219 180 156 139 148 120 82 87 81 77 109 131 162 161 139 125 139 142 134 78 327 275 284 330 321 324 323 280 270 248 186 186 208 234 239 221 206 202 209 229 236 247 271 317 301 280 278 276 270 265 269 285 288 278 268 269 275 277
Height
825 824 824 824 824 824 823 823 823 822 821 820 819 817 817 816 815 815 814 814 812 811 810 810 809 808 808 808 808 808 808 808 805 804 808 818 819 815 811 808 806 804 803 803 803 803 803 803 803 802 799 805 815 820 821 827 831 828 838 850 858 870 869 869 876 876 874 873 874 876 877 875 874 874 874 874 873 873 873 872 871 871 870 869 868 867 867 867
825 825 825 824 824 824 823 823 823 822 821 820 819 818 817 816 815 815 814 813 812 811 809 808 808 808 808 808 809 808 809 808 805 806 813 818 816 812 810 808 807 805 804 803 804 804 804 806 806 803 804 815 824 823 824 830 834 840 850 855 864 873 873 876 876 875 876 873 874 877 878 876 874 875 875 873 873 874 872 870 871 870 868 867 867 867 867 866
825 825 825 825 824 824 823 824 823 822 821 820 819 818 818 816 815 814 813 813 811 811 809 808 808 808 808 808 808 808 809 807 806 811 816 816 814 812 810 808 808 806 805 804 805 804 804 807 806 807 811 821 832 828 828 835 840 849 852 855 870 876 875 880 878 876 878 875 874 876 878 877 875 876 875 874 874 875 873 870 870 869 868 867 866 866 866 865
826 825 825 825 825 824 824 824 823 822 821 820 820 819 818 816 815 814 813 813 811 811 809 808 808 808 808 808 808 808 807 808 816 822 820 817 815 812 810 809 808 807 807 806 806 806 806 807 806 810 815 825 836 833 837 844 844 852 858 861 874 878 874 877 878 878 879 878 876 875 878 875 875 878 875 875 874 872 871 870 869 867 867 867 866 865 865 865
827 826 826 825 825 825 824 823 823 822 821 821 820 819 818 817 815 814 813 813 812 812 810 809 809 809 808 806 807 807 807 817 826 826 821 819 815 813 811 809 809 809 809 807 808 807 807 808 808 814 822 831 836 834 845 855 850 859 874 875 877 879 874 876 880 879 880 879 876 876 876 874 876 877 875 875 873 869 867 867 868 867 866 866 866 865 864 864
827 827 826 826 825 825 824 824 823 823 822 821 820 819 818 817 816 814 814 813 813 813 811 811 810 810 809 807 807 806 811 827 832 826 823 821 816 814 811 810 809 809 809 809 809 808 810 810 811 820 832 841 845 844 853 858 853 859 876 880 879 879 875 877 880 879 880 876 874 875 875 877 875 873 877 877 871 867 866 866 867 866 866 866 866 865 864 863
828 827 827 826 825 825 825 824 824 823 822 821 820 819 818 817 816 816 815 814 814 814 813 812 811 811 811 810 809 809 818 832 833 828 826 822 818 815 812 812 810 810 810 809 809 811 814 813 816 829 836 842 850 853 858 858 855 860 872 879 879 879 877 880 881 879 879 874 875 878 876 877 873 873 879 875 867 865 865 866 866 865 865 866 865 864 863 863
829 828 827 827 826 826 825 824 824 823 822 821 820 819 819 818 817 817 816 814 814 813 813 812 812 811 811 812 811 815 826 834 833 830 827 824 820 816 813 813 812 811 810 811 813 813 816 817 822 831 837 845 850 854 858 856 859 866 873 878 878 879 880 881 880 878 878 876 878 878 873 874 875 877 877 868 863 864 865 865 865 865 864 864 864 863 862 861
829 828 828 827 826 826 825 824 824 823 822 821 820 820 819 818 818 818 817 816 814 813 813 812 812 811 811 813 812 821 833 836 834 831 829 826 823 818 815 814 813 812 812 814 814 812 816 822 826 827 835 849 852 855 859 854 860 871 875 878 877 879 880 879 877 877 877 876 877 874 871 874 877 879 871 863 862 864 865 864 864 864 863 863 862 862 861 860
828 828 827 826 826 825 824 824 823 823 822 821 821 820 820 819 819 819 818 817 816 815 814 814 813 811 811 812 814 827 839 837 835 833 831 829 824 820 816 815 815 813 814 816 815 815 817 822 827 827 831 847 854 859 861 857 864 874 877 878 878 879 879 877 876 876 876 875 876 873 870 873 877 877 867 860 863 865 863 862 863 863 862 861 861 860 860 859
828 827 825 825 824 824 824 823 823 822 822 821 821 820 820 820 819 819 818 817 817 816 816 817 815 813 813 814 820 834 840 836 836 834 832 830 824 821 820 819 817 815 816 818 820 822 823 825 827 827 833 847 856 862 866 866 870 875 875 875 878 878 877 878 876 876 876 874 875 875 872 873 876 874 864 860 864 864 862 861 862 862 861 861 860 859 858 857
827 826 825 825 824 824 824 824 824 823 822 822 821 821 821 821 820 820 819 818 817 816 817 817 817 816 814 818 829 838 839 836 836 834 832 830 826 825 824 822 821 819 818 820 826 827 827 828 826 828 841 851 858 863 868 872 873 874 875 873 877 878 876 878 877 878 877 873 876 877 869 867 872 867 859 861 865 864 862 861 861 861 860 859 859 858 856 855
827 826 825 825 825 825 824 825 824 823 823 822 822 822 822 822 821 820 820 819 818 818 818 816 817 816 815 826 838 839 837 837 835 834 833 830 829 829 827 826 824 824 822 822 829 830 828 830 828 834 847 853 861 864 865 873 873 873 876 875 876 875 876 880 880 879 876 873 877 876 863 858 863 859 857 864 865 862 861 860 859 859 859 858 857 857 855 853
826 825 825 824 825 825 825 825 824 824 823 823 823 823 823 822 821 821 821 821 820 819 819 818 818 816 820 834 840 837 838 837 834 833 832 831 832 830 830 829 828 828 828 827 831 833 833 833 830 839 852 857 863 864 867 874 873 874 877 879 882 874 872 880 882 879 873 873 877 874 863 855 857 857 859 865 865 862 860 858 858 857 857 857 856 855 853 852
826 826 825 824 825 825 826 825 825 825 823 823 823 823 823 822 822 822 821 822 821 821 820 819 819 818 826 837 839 837 837 835 834 835 834 834 832 832 832 831 831 832 831 832 834 836 836 835 836 847 859 862 864 864 869 873 874 879 871 869 882 877 872 880 884 883 877 876 877 873 865 857 857 856 859 865 864 862 859 856 857 855 856 855 854 854 852 851
827 826 825 825 826 826 826 826 825 825 824 824 823 823 823 823 824 823 823 823 821 821 819 820 821 820 829 839 838 837 837 836 837 837 836 836 834 834 834 833 834 834 835 836 836 838 837 838 849 861 864 865 869 868 867 867 868 878 870 863 877 875 872 877 878 885 885 879 875 871 867 860 856 855 858 865 863 862 860 856 855 853 854 854 853 853 852 851
828 827 827 827 827 827 827 827 827 826 826 826 825 826 825 824 825 823 824 823 822 823 821 823 823 822 831 839 839 840 841 840 839 838 837 837 836 836 835 835 836 836 837 837 836 840 840 847 860 866 870 877 882 873 859 857 858 868 872 870 880 881 876 873 872 883 886 879 875 874 873 862 855 856 858 863 863 862 859 855 854 853 852 854 854 853 852 851
829 829 829 828 828 828 828 828 828 828 828 828 828 828 826 827 826 824 824 822 822 822 821 825 823 826 838 842 843 845 843 841 840 839 838 837 838 837 836 837 838 838 839 840 841 846 847 857 864 863 871 881 888 877 855 856 863 867 870 869 878 883 880 875 873 880 884 878 876 875 872 862 856 859 858 860 864 861 857 855 854 854 854 854 854 853 851 850
830 830 829 829 829 829 829 829 828 828 828 828 828 828 828 828 826 825 825 823 827 831 835 838 834 839 848 847 847 846 843 843 842 840 839 839 838 838 839 839 840 841 842 844 848 855 857 859 863 865 876 885 893 892 876 875 880 878 881 879 878 876 876 879 877 884 889 880 873 871 867 863 859 858 856 857 864 862 857 857 856 855 855 854 853 852 850 850
830 830 829 829 829 829 829 828 828 828 828 828 828 828 828 829 830 834 835 834 841 847 848 849 847 847 849 849 848 844 843 843 843 843 841 840 839 839 841 842 844 845 852 855 856 864 865 865 876 883 888 893 898 903 899 898 895 890 889 886 886 882 873 877 880 887 892 878 870 875 872 868 863 856 855 858 861 859 855 854 854 853 853 852 852 850 848 848
832 831 830 830 829 829 828 827 828 828 827 828 828 829 831 831 834 840 844 846 851 851 849 850 850 848 849 850 848 846 846 843 843 844 841 842 841 839 845 847 844 849 865 872 867 867 866 870 887 893 896 901 903 907 905 900 897 895 890 882 884 887 877 878 886 888 891 881 872 879 875 862 857 852 854 859 857 851 850 851 849 849 851 852 851 849 847 848
833 832 831 830 830 830 829 828 828 828 827 828 828 830 832 833 834 836 839 846 851 850 849 850 849 849 851 850 849 849 848 845 844 843 843 843 841 842 850 853 850 858 872 873 866 866 869 879 892 897 902 905 906 909 903 895 895 893 890 882 877 886 883 878 887 891 893 884 868 876 878 859 852 853 852 856 854 850 853 854 851 850 850 849 849 848 847 847
832 832 831 831 831 831 830 830 829 829 828 828 829 831 833 834 836 836 835 841 848 850 850 850 850 851 851 849 851 850 848 852 852 849 847 844 846 851 855 858 861 867 872 868 860 858 867 885 897 902 904 899 898 905 901 892 894 892 887 880 878 889 885 872 880 891 894 890 878 882 883 860 850 852 848 852 857 855 856 855 854 855 852 848 849 850 849 847
832 832 832 832 832 831 832 831 830 831 830 831 832 833 835 835 836 836 837 844 849 850 852 853 853 853 853 852 853 851 852 858 859 856 852 850 854 857 859 864 866 870 879 878 870 867 876 893 904 904 900 896 892 896 898 888 886 894 892 886 885 892 893 885 891 895 889 890 892 885 868 850 849 848 843 851 857 853 853 852 848 848 851 851 850 849 849 848
834 833 833 833 832 832 833 832 832 833 832 833 834 835 836 836 837 836 837 846 850 851 853 853 854 854 854 854 853 855 856 858 860 859 856 856 858 859 864 871 867 869 882 882 875 877 887 900 905 897 893 895 889 889 898 892 881 886 893 896 895 896 900 899 900 895 873 868 889 885 853 840 850 849 843 850 852 847 848 849 843 842 845 847 846 844 846 847
835 834 834 833 832 832 832 832 834 833 833 835 835 837 837 836 838 835 837 848 853 855 855 852 855 855 854 856 856 857 856 857 861 860 858 859 859 859 862 871 872 872 882 883 878 881 891 901 902 894 890 891 885 886 899 900 882 876 892 902 903 903 903 901 900 889 865 862 887 891 863 848 848 841 845 856 852 845 845 845 842 842 841 841 842 842 843 844
836 835 834 832 833 832 832 833 834 834 834 836 836 837 837 837 837 835 841 854 859 861 859 854 856 856 856 859 859 857 857 859 860 860 861 859 860 860 858 867 873 875 889 884 872 882 891 892 895 894 890 884 880 883 897 903 886 878 897 906 903 903 901 903 902 887 879 879 883 887 878 868 855 841 851 862 852 843 843 841 841 841 840 840 841 841 842 842
836 835 834 833 833 832 832 833 833 834 834 835 837 837 837 838 837 836 845 861 866 864 861 857 856 857 858 860 860 860 862 864 861 859 863 860 860 860 860 872 875 877 892 879 864 885 895 888 891 890 886 883 884 891 899 902 891 889 905 907 904 906 903 907 901 886 891 882 866 879 887 873 854 845 855 861 849 843 841 839 839 839 839 840 839 839 840 840
837 835 834 833 833 833 833 833 833 835 835 836 837 837 838 838 837 840 851 864 867 864 863 859 855 859 863 861 862 866 865 866 866 863 863 862 861 861 864 877 880 878 887 878 870 888 896 893 896 892 887 888 892 900 903 900 895 899 909 908 908 910 908 909 897 884 886 873 862 884 892 873 852 842 849 853 846 840 837 837 840 840 840 840 840 840 839 839
837 835 835 833 833 833 833 834 835 835 836 837 837 838 839 838 841 851 862 865 866 866 864 860 860 867 868 861 862 869 869 869 874 869 865 866 864 865 872 878 878 875 878 880 882 892 900 900 901 897 894 895 898 905 909 905 902 905 907 905 904 906 907 905 900 889 872 858 869 892 895 882 860 842 841 843 841 839 836 837 839 838 839 839 839 839 839 839
837 836 835 833 833 833 833 835 836 836 838 837 838 839 838 842 849 859 867 869 867 866 864 866 873 876 873 868 867 873 872 872 878 872 866 871 871 870 874 874 873 871 870 877 883 890 896 894 896 900 899 902 900 901 909 911 909 907 904 898 887 884 889 883 881 880 859 849 874 897 899 893 868 843 836 836 840 843 839 836 835 835 836 836 837 838 839 840
838 836 835 834 834 834 834 836 837 838 838 837 840 839 840 850 856 860 868 869 867 868 869 874 879 880 880 878 877 880 879 875 880 881 879 883 885 887 887 883 882 871 865 876 881 882 887 887 894 899 901 904 896 890 897 904 906 902 895 885 864 856 864 859 861 871 860 857 884 901 897 887 865 841 833 832 832 837 840 838 836 836 835 835 836 837 839 841
838 838 837 835 835 835 836 837 838 838 838 839 840 839 846 855 860 870 876 868 868 876 879 880 883 886 882 874 877 887 885 879 882 886 890 890 887 894 900 901 900 881 870 881 881 873 877 885 892 892 893 901 896 884 879 885 891 888 886 877 857 857 863 861 873 881 867 863 889 910 896 868 849 835 831 831 829 834 841 841 840 840 838 835 837 839 839 839
839 839 838 837 838 837 838 838 839 839 840 840 839 842 852 858 866 879 877 871 878 884 884 885 883 882 880 875 883 890 881 880 887 886 886 884 879 884 891 896 902 893 882 884 884 879 873 873 884 889 890 895 897 894 890 890 888 890 900 888 867 872 872 867 875 872 868 873 886 901 883 849 835 830 831 835 835 841 843 843 846 843 841 841 840 840 838 835
840 840 840 839 839 839 840 840 840 840 839 839 842 849 855 857 865 871 867 871 882 880 883 891 882 871 876 881 888 893 883 878 886 885 880 882 883 886 889 891 899 899 886 876 884 892 879 874 890 898 898 899 896 901 906 897 885 895 908 888 873 884 883 888 903 901 903 897 881 881 869 848 841 834 838 844 840 841 840 840 843 837 837 842 837 834 832 830
841 841 840 840 841 841 841 840 840 840 839 841 845 851 856 860 865 868 869 875 877 874 876 881 877 868 871 878 882 889 889 883 883 881 881 889 893 894 895 897 903 904 892 881 884 890 879 876 895 901 899 903 901 903 909 897 883 889 893 881 890 905 893 893 914 930 930 897 870 873 861 848 845 831 833 843 835 834 835 834 836 832 834 838 832 829 829 827
841 841 842 842 842 841 841 841 841 839 840 841 845 855 866 873 877 879 882 883 879 879 873 868 875 877 870 872 877 881 883 883 883 878 879 889 891 892 897 899 904 907 904 897 890 892 886 876 891 899 891 900 910 906 906 907 898 886 879 885 902 909 900 892 890 899 903 877 863 874 865 854 851 832 828 835 829 827 829 829 832 832 831 832 828 826 826 825
842 842 843 843 842 842 842 840 840 840 841 844 851 865 876 879 885 890 890 888 882 878 871 864 877 887 878 871 874 883 882 875 877 879 879 884 886 892 898 897 902 908 911 906 893 897 897 876 882 901 894 897 912 904 893 902 907 895 887 897 899 887 885 890 884 877 880 877 871 872 873 868 856 837 826 826 824 822 823 826 828 826 826 826 825 823 823 824
842 843 842 843 842 842 841 840 842 841 841 847 852 864 879 883 888 895 894 891 884 874 869 870 880 888 887 879 875 884 887 876 877 882 880 882 885 894 900 897 900 906 910 909 896 898 903 881 874 896 901 898 900 893 885 888 899 900 896 901 901 895 891 893 896 890 880 883 883 874 865 850 839 837 828 819 822 821 820 823 822 820 822 822 822 821 820 822
843 843 842 844 841 841 842 840 842 841 843 858 865 870 884 887 888 896 896 892 886 876 871 875 879 879 883 888 885 886 889 885 884 883 882 887 887 891 902 902 899 903 908 909 902 901 904 889 876 886 899 895 889 893 895 892 895 894 890 892 895 904 910 902 907 915 897 886 893 892 869 837 826 834 825 816 819 820 820 821 819 820 821 821 822 821 820 821
843 842 842 843 841 842 842 840 854 863 860 870 880 882 888 888 886 894 897 894 891 886 882 879 878 876 876 881 884 886 888 886 887 886 884 889 886 886 903 909 904 904 902 898 899 900 898 892 885 882 883 882 890 910 918 913 912 904 894 893 890 897 902 886 892 921 921 902 899 903 882 841 824 830 825 818 820 820 825 826 822 822 822 821 822 822 823 823
843 843 843 843 840 841 839 847 876 889 873 872 884 887 889 890 888 891 893 893 890 888 888 884 883 883 881 880 885 889 886 881 885 887 883 888 889 890 906 916 912 908 902 895 901 907 903 897 890 881 883 893 906 922 925 920 923 920 911 909 903 899 894 878 878 900 917 921 920 920 896 842 820 833 831 825 828 830 834 835 829 825 825 824 823 822 825 824
843 843 842 841 841 841 840 850 874 884 880 886 894 894 893 892 889 889 890 889 886 885 884 883 885 884 884 889 889 888 885 879 882 886 885 889 897 904 913 917 912 909 904 897 900 908 905 897 888 879 885 902 914 921 926 927 924 912 909 915 910 901 896 893 894 896 903 914 914 912 890 835 815 837 839 831 837 837 837 839 834 828 826 825 824 822 823 821
847 846 844 842 840 839 840 846 855 869 885 893 891 890 893 893 891 888 886 885 887 885 879 882 889 886 890 899 892 890 893 882 877 888 892 891 899 912 918 915 913 909 903 900 901 903 896 891 890 880 875 882 890 896 902 910 913 902 902 916 914 907 904 903 907 904 896 898 897 891 873 831 817 835 834 829 834 828 826 832 832 829 825 822 823 822 820 819
848 846 845 844 841 841 847 854 853 862 882 885 880 883 886 887 893 892 888 889 894 892 882 884 892 891 895 903 896 898 905 891 880 889 896 896 904 915 916 914 914 910 908 912 912 904 896 894 891 881 877 876 872 873 877 885 898 900 902 912 911 906 900 892 899 899 885 894 903 883 853 824 815 825 824 823 828 823 820 823 827 829 825 822 822 818 817 817
847 845 845 845 845 849 859 870 864 860 872 873 870 879 880 878 889 897 893 890 894 896 889 888 894 891 891 894 887 889 901 902 897 893 889 893 903 912 916 915 914 912 912 915 913 907 903 902 896 884 879 877 869 874 886 890 891 889 891 900 903 906 903 894 896 891 881 896 897 868 848 834 820 821 822 821 823 822 820 819 820 822 821 820 820 816 815 815
850 850 852 849 847 851 858 869 869 863 866 864 860 872 878 876 884 891 892 891 893 896 891 890 892 884 879 883 880 882 896 903 900 893 890 896 905 913 917 915 913 913 912 912 912 908 898 894 899 895 885 883 882 885 895 897 890 884 884 888 894 903 905 895 885 880 882 888 871 849 855 852 829 822 824 820 819 819 818 816 815 816 816 816 816 814 814 811
853 856 865 861 853 854 854 860 869 867 866 867 869 874 875 874 877 877 883 892 895 893 886 882 885 881 877 879 874 875 889 891 887 889 892 898 904 908 910 913 915 913 912 911 910 907 895 889 902 905 892 887 890 893 900 901 897 893 890 888 891 900 902 889 879 879 881 873 850 841 854 852 833 827 825 819 818 818 816 814 813 814 814 814 813 812 810 808
858 859 868 867 861 864 867 870 874 867 863 867 871 873 872 869 869 874 883 888 886 891 887 873 872 878 881 882 875 872 878 875 872 881 889 893 900 900 896 899 908 915 913 907 909 911 899 890 904 911 896 885 890 900 906 904 896 892 889 887 889 892 892 885 878 879 878 867 853 850 856 849 832 826 823 817 816 819 818 815 813 812 812 812 811 809 806 804
858 857 863 865 864 872 876 876 872 862 863 867 864 867 873 868 865 874 882 876 868 881 889 873 869 880 886 885 878 870 872 871 867 874 883 884 889 892 886 883 895 913 914 906 910 914 900 893 909 914 894 882 892 902 902 900 897 890 881 881 887 888 889 889 884 882 882 874 863 862 868 857 830 819 823 821 817 820 818 814 811 808 809 811 808 805 803 800
858 858 860 858 860 870 872 873 871 861 858 862 858 863 870 865 864 869 872 873 869 872 878 872 870 883 891 889 880 872 875 879 873 875 880 879 880 885 884 882 889 900 907 908 909 908 901 899 908 907 884 874 891 897 889 889 893 880 861 859 874 883 883 882 879 876 873 867 864 868 867 846 821 815 821 818 816 819 815 810 809 806 806 808 805 801 799 796
860 859 861 857 858 868 870 869 871 862 855 858 860 864 866 864 869 869 862 870 880 877 878 878 874 878 883 882 878 875 879 883 882 885 889 889 889 892 891 892 893 892 899 906 906 907 906 895 895 898 881 871 891 900 888 881 871 850 835 838 854 870 874 872 870 868 864 859 857 854 839 818 812 817 818 812 810 811 807 806 806 804 802 803 801 799 796 793